Total_Precipitation_Accumulation
0.22 0.16 0.15 0.14 0.14 0.15 0.20 0.27 0.43 0.50 0.50 0.51 0.56 0.58 0.59 0.63 0.61 0.52 0.46 0.38 0.34 0.30 0.27 0.31 0.33 0.33 0.31 0.27 0.30 0.33 0.33 0.34 0.39 0.41 0.40 0.39 0.39 0.37 0.36 0.36 0.34 0.29 0.27 0.30
0.16 0.13 0.12 0.10 0.09 0.12 0.16 0.20 0.30 0.31 0.32 0.29 0.27 0.23 0.22 0.25 0.30 0.28 0.27 0.23 0.24 0.24 0.24 0.26 0.27 0.26 0.26 0.24 0.23 0.23 0.23 0.24 0.31 0.37 0.38 0.39 0.35 0.33 0.31 0.32 0.31 0.29 0.26 0.27
0.18 0.12 0.16 0.14 0.08 0.10 0.15 0.14 0.18 0.23 0.27 0.27 0.21 0.16 0.14 0.13 0.14 0.15 0.17 0.19 0.19 0.20 0.25 0.28 0.27 0.27 0.28 0.25 0.22 0.21 0.21 0.24 0.29 0.31 0.29 0.32 0.33 0.28 0.23 0.26 0.26 0.26 0.27 0.27
0.27 0.24 0.27 0.13 0.06 0.07 0.09 0.09 0.13 0.16 0.17 0.18 0.16 0.16 0.14 0.12 0.12 0.13 0.13 0.15 0.18 0.19 0.21 0.27 0.28 0.30 0.31 0.29 0.26 0.23 0.23 0.24 0.27 0.28 0.27 0.26 0.27 0.24 0.21 0.24 0.27 0.27 0.32 0.32
0.40 0.33 0.18 0.10 0.08 0.07 0.07 0.08 0.10 0.10 0.08 0.08 0.09 0.14 0.12 0.10 0.09 0.09 0.10 0.11 0.14 0.17 0.22 0.26 0.28 0.33 0.33 0.30 0.29 0.28 0.26 0.24 0.24 0.25 0.27 0.27 0.23 0.21 0.20 0.24 0.27 0.26 0.28 0.30
0.47 0.42 0.26 0.12 0.07 0.07 0.08 0.12 0.12 0.10 0.09 0.08 0.09 0.14 0.12 0.09 0.08 0.07 0.08 0.09 0.10 0.13 0.17 0.22 0.29 0.32 0.35 0.35 0.30 0.27 0.27 0.27 0.26 0.24 0.22 0.25 0.24 0.24 0.22 0.25 0.28 0.29 0.28 0.25
0.43 0.41 0.21 0.09 0.07 0.10 0.17 0.17 0.13 0.12 0.10 0.11 0.11 0.11 0.10 0.07 0.06 0.07 0.08 0.08 0.09 0.12 0.14 0.19 0.28 0.32 0.38 0.38 0.28 0.26 0.31 0.34 0.33 0.29 0.27 0.31 0.32 0.31 0.28 0.28 0.31 0.32 0.30 0.27
0.39 0.42 0.26 0.10 0.12 0.19 0.20 0.13 0.10 0.10 0.10 0.10 0.09 0.08 0.07 0.07 0.07 0.08 0.09 0.10 0.10 0.11 0.12 0.15 0.24 0.32 0.36 0.39 0.36 0.34 0.34 0.36 0.37 0.37 0.36 0.37 0.39 0.39 0.38 0.36 0.36 0.38 0.39 0.36
0.34 0.26 0.16 0.13 0.16 0.18 0.16 0.14 0.11 0.10 0.10 0.10 0.09 0.08 0.07 0.07 0.07 0.08 0.09 0.10 0.11 0.12 0.12 0.14 0.22 0.27 0.33 0.37 0.41 0.38 0.38 0.38 0.39 0.41 0.41 0.39 0.40 0.42 0.42 0.38 0.37 0.38 0.40 0.41
0.32 0.19 0.17 0.17 0.17 0.18 0.17 0.13 0.10 0.09 0.09 0.09 0.09 0.08 0.08 0.07 0.06 0.08 0.09 0.11 0.13 0.13 0.12 0.14 0.21 0.29 0.40 0.42 0.40 0.41 0.42 0.42 0.41 0.41 0.40 0.39 0.39 0.39 0.38 0.38 0.35 0.36 0.40 0.41
0.37 0.26 0.23 0.23 0.21 0.19 0.17 0.12 0.08 0.07 0.07 0.08 0.08 0.07 0.09 0.09 0.07 0.07 0.09 0.11 0.13 0.14 0.13 0.16 0.21 0.30 0.41 0.41 0.41 0.43 0.45 0.45 0.44 0.41 0.38 0.38 0.37 0.37 0.37 0.36 0.39 0.41 0.42 0.45
0.46 0.32 0.31 0.27 0.21 0.18 0.18 0.14 0.10 0.07 0.06 0.06 0.07 0.08 0.10 0.10 0.08 0.08 0.08 0.10 0.14 0.14 0.14 0.16 0.20 0.25 0.32 0.37 0.39 0.41 0.43 0.44 0.43 0.44 0.41 0.38 0.37 0.37 0.41 0.43 0.46 0.41 0.41 0.42
0.41 0.32 0.26 0.22 0.21 0.22 0.22 0.19 0.13 0.09 0.08 0.07 0.07 0.09 0.12 0.11 0.09 0.10 0.11 0.11 0.13 0.16 0.15 0.18 0.22 0.26 0.30 0.34 0.37 0.40 0.41 0.38 0.38 0.41 0.42 0.40 0.40 0.39 0.39 0.39 0.38 0.36 0.34 0.35
0.28 0.30 0.28 0.23 0.23 0.24 0.22 0.20 0.14 0.09 0.08 0.08 0.09 0.10 0.13 0.13 0.12 0.12 0.13 0.13 0.14 0.16 0.15 0.16 0.19 0.25 0.31 0.32 0.34 0.42 0.50 0.52 0.47 0.42 0.43 0.44 0.44 0.40 0.38 0.38 0.39 0.36 0.33 0.32
0.20 0.24 0.26 0.23 0.21 0.19 0.18 0.16 0.13 0.11 0.09 0.09 0.10 0.11 0.15 0.15 0.16 0.15 0.14 0.14 0.15 0.16 0.16 0.15 0.16 0.21 0.27 0.30 0.33 0.38 0.45 0.50 0.51 0.50 0.47 0.45 0.43 0.40 0.38 0.36 0.36 0.38 0.38 0.37
0.20 0.18 0.20 0.24 0.21 0.16 0.16 0.17 0.18 0.15 0.12 0.11 0.11 0.12 0.16 0.17 0.16 0.16 0.16 0.16 0.16 0.16 0.17 0.19 0.20 0.21 0.23 0.27 0.31 0.35 0.40 0.47 0.50 0.48 0.48 0.48 0.45 0.43 0.43 0.41 0.41 0.42 0.38 0.40
0.24 0.23 0.24 0.28 0.24 0.19 0.19 0.22 0.23 0.18 0.13 0.10 0.12 0.13 0.16 0.21 0.21 0.20 0.19 0.18 0.17 0.16 0.17 0.19 0.21 0.23 0.25 0.29 0.35 0.38 0.38 0.41 0.46 0.45 0.45 0.47 0.50 0.49 0.50 0.48 0.46 0.46 0.47 0.50
0.26 0.25 0.27 0.30 0.28 0.30 0.31 0.28 0.25 0.18 0.13 0.12 0.12 0.13 0.16 0.19 0.23 0.23 0.23 0.21 0.19 0.18 0.19 0.19 0.20 0.23 0.25 0.30 0.35 0.39 0.42 0.40 0.40 0.42 0.43 0.44 0.47 0.47 0.47 0.46 0.46 0.48 0.51 0.54
0.19 0.20 0.23 0.25 0.29 0.35 0.33 0.30 0.27 0.20 0.15 0.16 0.17 0.16 0.16 0.18 0.20 0.20 0.21 0.23 0.22 0.21 0.20 0.20 0.23 0.24 0.25 0.31 0.34 0.37 0.42 0.43 0.43 0.42 0.41 0.44 0.45 0.43 0.46 0.47 0.48 0.50 0.51 0.51
0.19 0.21 0.25 0.28 0.29 0.29 0.31 0.29 0.23 0.19 0.16 0.17 0.19 0.18 0.18 0.19 0.19 0.19 0.21 0.22 0.21 0.21 0.22 0.24 0.23 0.23 0.28 0.29 0.31 0.30 0.38 0.42 0.41 0.40 0.41 0.41 0.40 0.41 0.43 0.44 0.44 0.46 0.48 0.49
0.23 0.26 0.28 0.31 0.30 0.28 0.31 0.32 0.27 0.23 0.20 0.20 0.21 0.22 0.21 0.21 0.20 0.21 0.22 0.20 0.19 0.18 0.20 0.26 0.24 0.24 0.28 0.33 0.34 0.30 0.33 0.37 0.39 0.40 0.42 0.43 0.43 0.44 0.45 0.44 0.43 0.43 0.44 0.45
0.27 0.29 0.32 0.34 0.33 0.31 0.32 0.38 0.36 0.29 0.24 0.24 0.23 0.24 0.25 0.25 0.23 0.24 0.23 0.24 0.22 0.22 0.21 0.22 0.24 0.29 0.36 0.38 0.32 0.32 0.34 0.34 0.38 0.40 0.42 0.43 0.44 0.44 0.45 0.47 0.47 0.45 0.46 0.50
0.31 0.32 0.34 0.35 0.38 0.36 0.33 0.37 0.37 0.30 0.27 0.28 0.27 0.28 0.29 0.30 0.30 0.29 0.27 0.25 0.25 0.26 0.24 0.24 0.29 0.37 0.44 0.38 0.33 0.33 0.33 0.34 0.34 0.35 0.37 0.39 0.41 0.43 0.45 0.45 0.47 0.48 0.49 0.52
0.32 0.35 0.37 0.38 0.40 0.38 0.39 0.40 0.38 0.34 0.32 0.33 0.32 0.31 0.31 0.34 0.34 0.31 0.32 0.34 0.34 0.32 0.28 0.28 0.33 0.39 0.43 0.36 0.37 0.36 0.32 0.32 0.34 0.35 0.35 0.36 0.40 0.42 0.44 0.43 0.44 0.46 0.49 0.54
0.36 0.37 0.40 0.42 0.44 0.44 0.47 0.47 0.45 0.41 0.40 0.39 0.38 0.36 0.35 0.38 0.43 0.41 0.39 0.38 0.40 0.39 0.33 0.33 0.38 0.40 0.36 0.36 0.38 0.38 0.39 0.39 0.41 0.42 0.41 0.42 0.42 0.42 0.42 0.42 0.43 0.45 0.49 0.55
0.37 0.41 0.44 0.46 0.47 0.46 0.49 0.50 0.51 0.49 0.48 0.48 0.44 0.41 0.40 0.42 0.46 0.47 0.47 0.46 0.46 0.46 0.41 0.41 0.41 0.42 0.41 0.43 0.45 0.43 0.42 0.45 0.48 0.47 0.46 0.47 0.46 0.49 0.51 0.51 0.51 0.52 0.55 0.59
0.32 0.37 0.38 0.39 0.41 0.43 0.45 0.49 0.54 0.56 0.56 0.57 0.55 0.50 0.49 0.51 0.51 0.50 0.50 0.52 0.54 0.53 0.52 0.53 0.53 0.53 0.54 0.54 0.54 0.53 0.50 0.47 0.48 0.48 0.49 0.52 0.54 0.55 0.56 0.59 0.62 0.64 0.65 0.66